Location: Narrabri
(30.3170°S, 149.7830°E)
Time: 16:36:39
(UTC+11:00)

Tiangong 2 - Pass Details

Date: 13 October 2017
Orbit: 388 x 392 km, 42.8° (Epoch: 18 October)

Event Time Altitude Azimuth Distance (km) Brightness Sun altitude
Rises 20:11:18 0° 226° (SW) 2,297 6.2 -13.7°
Reaches altitude 10° 20:13:51 10° 206° (SSW) 1,437 4.6 -14.3°
Maximum altitude 20:16:10 18° 160° (SSE) 1,056 3.3 -14.7°
Enters shadow 20:17:23 15° 132° (SE) 1,172 3.2 -15.0°
